Location: Huntsville
(41.2590°N, 111.7678°W)
Time: 20:41:36
(UTC+00:00)

Vanguard 2 - Visible Passes

Search period start: 13 June 2021 00:00
Search period end: 23 June 2021 00:00
Orbit: 552 x 2937 km, 32.9° (Epoch: 13 June)

Date Brightness Start Highest point End Pass type
(mag) Time Alt. Az. Time Alt. Az. Time Alt. Az.
13 Jun 8.6 04:01:50 10° WSW 04:08:41 34° S 04:12:40 14° ESE visible
13 Jun 9.2 06:11:57 10° WSW 06:14:05 19° SW 06:14:05 19° SW visible
14 Jun 8.4 04:19:23 10° WSW 04:26:19 37° S 04:29:35 19° ESE visible
14 Jun 9.5 06:29:49 10° WSW 06:30:59 14° WSW 06:30:59 14° WSW visible
15 Jun 8.4 04:37:04 10° WSW 04:43:55 38° S 04:46:25 24° SE visible
16 Jun 8.3 04:54:49 10° WSW 05:01:29 36° SSW 05:03:13 29° SSE visible
17 Jun 8.4 05:12:39 10° WSW 05:18:59 33° SSW 05:19:58 31° S visible
18 Jun 8.7 05:30:35 10° WSW 05:36:26 28° SSW 05:36:41 28° SSW visible
19 Jun 8.9 03:36:43 10° WSW 03:46:01 45° S 03:51:45 10° ESE visible
19 Jun 9.1 05:48:40 10° WSW 05:53:23 22° SW 05:53:23 22° SW visible
20 Jun 8.9 03:54:34 10° W 04:03:35 43° SSW 04:08:41 13° SE visible
20 Jun 9.6 06:07:03 10° WSW 06:10:04 16° SW 06:10:04 16° SW visible
21 Jun 9.0 04:12:28 10° W 04:21:04 38° SSW 04:25:21 17° SE visible
21 Jun 10.0 06:26:16 10° WSW 06:26:44 11° SW 06:26:44 11° SW visible
22 Jun 9.1 04:30:28 10° W 04:38:30 32° SSW 04:42:00 19° SSE visible
